Weather in Chomutov

Czech Republic     50°27′30″N   13°25′08″E
temp.,
°C
wind,
m/s
gust,
m/s
humid.,
%
clouds,
%
prec.,
mm/h
press.,
hPa
HPBL,
m
2 march, tue
tue201:00+2nw01860 0.0 103522
04:00+1e01900 0.0 103422
07:00+1se00930 0.0 103522
10:00+5ese11770 0.0 1035210
13:00+8se11610 0.0 1034298
16:00+9se11570 0.0 1033292
19:00+5nne01740 0.0 103322
22:00+4w01780 0.0 103322
3 march, wed
wed301:00+3w00800 0.0 103322
04:00+2wsw00830 0.0 103222
07:00+1ssw008510 0.0 103222
10:00+6sse116619 0.0 1031202
13:00+10sse125316 0.0 1029361
16:00+11sse12540 0.0 1026244
19:00+7w11690 0.0 102622
22:00+6w136748 0.0 102466
4 march, thu
thu401:00+5wsw137954 0.0 102373
04:00+4w12879 0.0 102131
07:00+3w128921 0.0 102026
10:00+9wsw137014 0.0 1018344
13:00+12w365749 0.0 10171309
16:00+9w4874100 1.2 1014938
19:00+7nw2486100 1.8 1014238
22:00+6nnw2391100 2.0 1014252
5 march, fri
fri501:00+4nnw3791100 2.5 1014455
04:00+2n3693100 0.4 1015420
07:00+1nne4784100 0.7 1018718
10:00+1nne476884 0.1 10201014
13:00+2nne574968 0.2 10221263
16:00+2nne57480 0.0 10231601
19:00−1n36610 0.0 1027377
22:00−1nw36610 0.0 1029370
6 march, sat
sat601:00−2nnw24670 0.0 1031231
04:00−2nnw24670 0.0 1032264
07:00−3nnw22640 0.0 1033187
10:000n11380 0.0 1034931
13:00+3nnw02300 0.0 10341514
16:00+3nnw23330 0.0 10321364
19:00−1nw23510 0.0 1032187
22:00−2w12520 0.0 103342